Location: Casteau
(50.5142°N, 4.0161°E)
Time: 19:00:35
(UTC+00:00)

Transit 2A - Pass Details

Date: 28 July 2021
Orbit: 594 x 964 km, 66.7° (Epoch: 27 September)

Event Time Altitude Azimuth Distance (km) Brightness Sun altitude
Rises 07:29:20 0° 218° (SW) 2,836 8.7 30.1°
Reaches altitude 10° 07:31:31 10° 220° (SW) 1,956 7.9 30.4°
Maximum altitude 07:35:53 82° 307° (NW) 647 6.1 31.1°
Drops below altitude 10° 07:40:39 10° 36° (NE) 2,117 8.7 31.9°
Sets 07:43:05 0° 38° (NE) 3,092 9.5 32.3°
